RYR41BZ EIDW-EGSS

Flight info

Callsign RYR41BZ
Flight time N/A
Altitude 33000
Route ENDEQ1E ENDEQ Q36 NOSLO Z197 LISTO
Aircraft B38M/M-SDE1FGHILORVWXY/HB1

Departure

Time 2026-04-30 20:00
Airport Dublin Airport (EIDW)

Arrival

Time N/A
Airport London Stansted Airport (EGSS)
Time Latitude Longitude Altitude Speed Heading
2026-04-30 19:40 53.43014 -6.25074 213 ft 0 kts
2026-04-30 19:50 53.43001 -6.25076 215 ft 4 kts 360°
2026-04-30 19:50 53.42974 -6.25069 213 ft 4 kts 335°
2026-04-30 19:50 53.42956 -6.25043 215 ft 4 kts 286°
2026-04-30 19:51 53.42954 -6.25032 216 ft 1 kts 275°
2026-04-30 19:53 53.42955 -6.25036 213 ft 0 kts 275°
2026-04-30 19:54 53.42955 -6.25040 213 ft 1 kts 273°
2026-04-30 19:54 53.42956 -6.25070 221 ft 4 kts 273°
2026-04-30 19:54 53.42959 -6.25145 213 ft 8 kts 275°
2026-04-30 19:55 53.42960 -6.25171 213 ft 0 kts 274°
2026-04-30 19:55 53.42953 -6.25267 220 ft 14 kts 251°
2026-04-30 19:55 53.42893 -6.25398 213 ft 15 kts 221°
2026-04-30 19:55 53.42817 -6.25530 215 ft 16 kts 229°
2026-04-30 19:56 53.42734 -6.25675 213 ft 19 kts 226°
2026-04-30 19:56 53.42642 -6.25731 213 ft 14 kts 157°
2026-04-30 19:56 53.42541 -6.25698 215 ft 16 kts 199°
2026-04-30 19:56 53.42458 -6.25826 215 ft 17 kts 227°
2026-04-30 19:57 53.42378 -6.25919 217 ft 10 kts 238°
2026-04-30 19:57 53.42349 -6.26011 213 ft 9 kts 229°
2026-04-30 19:57 53.42300 -6.26101 216 ft 12 kts 233°
2026-04-30 19:57 53.42267 -6.26309 213 ft 22 kts 270°
2026-04-30 19:58 53.42281 -6.26577 218 ft 23 kts 276°
2026-04-30 19:58 53.42299 -6.26849 213 ft 22 kts 270°
2026-04-30 19:58 53.42311 -6.27116 217 ft 25 kts 275°
2026-04-30 19:58 53.42329 -6.27433 213 ft 28 kts 276°
2026-04-30 19:59 53.42349 -6.27773 217 ft 30 kts 275°
2026-04-30 19:59 53.42367 -6.28129 213 ft 31 kts 275°
2026-04-30 19:59 53.42245 -6.28227 215 ft 19 kts 123°
2026-04-30 20:00 53.42172 -6.27719 215 ft 79 kts 95°
2026-04-30 20:00 53.42098 -6.26352 214 ft 154 kts 95°
2026-04-30 20:00 53.41989 -6.24271 501 ft 197 kts 94°
2026-04-30 20:00 53.41885 -6.21929 1621 ft 192 kts 101°
2026-04-30 20:01 53.41605 -6.17256 3193 ft 226 kts 100°
2026-04-30 20:01 53.41453 -6.14596 4157 ft 230 kts 99°
2026-04-30 20:01 53.41297 -6.11836 4950 ft 246 kts 99°
2026-04-30 20:02 53.40965 -6.05915 6790 ft 262 kts 100°
2026-04-30 20:02 53.40960 -6.02812 7724 ft 271 kts 89°
2026-04-30 20:03 53.41414 -5.96388 9064 ft 283 kts 88°
2026-04-30 20:03 53.41647 -5.93100 9563 ft 284 kts 88°
2026-04-30 20:03 53.41882 -5.89791 10519 ft 288 kts 89°
2026-04-30 20:03 53.42122 -5.86391 11009 ft 307 kts 88°
2026-04-30 20:04 53.42379 -5.82758 11575 ft 321 kts 88°
2026-04-30 20:04 53.42639 -5.78985 12381 ft 326 kts 89°
2026-04-30 20:04 53.42894 -5.75197 13290 ft 330 kts 89°
2026-04-30 20:05 53.43415 -5.67450 14901 ft 337 kts 89°
2026-04-30 20:05 53.43676 -5.63556 15679 ft 341 kts 89°
2026-04-30 20:05 53.44205 -5.55562 17183 ft 349 kts 89°
2026-04-30 20:06 53.44473 -5.51484 17920 ft 353 kts 89°
2026-04-30 20:06 53.44498 -5.47379 18582 ft 351 kts 99°
2026-04-30 20:06 53.44357 -5.43258 19191 ft 356 kts 98°
2026-04-30 20:06 53.44243 -5.39113 19801 ft 359 kts 97°
2026-04-30 20:07 53.44140 -5.34899 20401 ft 363 kts 97°
2026-04-30 20:07 53.44044 -5.30644 21011 ft 366 kts 97°
2026-04-30 20:07 53.43859 -5.22018 22188 ft 373 kts 97°
2026-04-30 20:08 53.43764 -5.17650 22773 ft 376 kts 97°
2026-04-30 20:08 53.43631 -5.13263 23292 ft 380 kts 97°
2026-04-30 20:08 53.43496 -5.08819 23820 ft 383 kts 97°
2026-04-30 20:08 53.43358 -5.04319 24285 ft 386 kts 96°
2026-04-30 20:09 53.43221 -4.99871 24741 ft 389 kts 97°
2026-04-30 20:09 53.43076 -4.95286 25197 ft 392 kts 97°
2026-04-30 20:09 53.42779 -4.86101 26095 ft 397 kts 97°
2026-04-30 20:10 53.42472 -4.76850 26965 ft 402 kts 97°
2026-04-30 20:10 53.42314 -4.72145 27391 ft 405 kts 97°
2026-04-30 20:10 53.42153 -4.67422 27799 ft 407 kts 97°
2026-04-30 20:11 53.41821 -4.57871 28562 ft 413 kts 96°
2026-04-30 20:11 53.41652 -4.53069 28954 ft 416 kts 96°
2026-04-30 20:11 53.41479 -4.48218 29344 ft 418 kts 96°
2026-04-30 20:12 53.41124 -4.38435 30098 ft 423 kts 96°
2026-04-30 20:12 53.40945 -4.33491 30416 ft 426 kts 96°
2026-04-30 20:12 53.40762 -4.28528 30731 ft 428 kts 96°
2026-04-30 20:13 53.40575 -4.23542 31029 ft 430 kts 96°
2026-04-30 20:13 53.40199 -4.13739 31133 ft 414 kts 96°
2026-04-30 20:14 53.39823 -4.04191 31136 ft 415 kts 96°
2026-04-30 20:14 53.39438 -3.94544 31137 ft 415 kts 96°
2026-04-30 20:15 53.39043 -3.84895 31144 ft 415 kts 96°
2026-04-30 20:15 53.38644 -3.75247 31144 ft 415 kts 96°
2026-04-30 20:16 53.38235 -3.65622 31151 ft 415 kts 96°
2026-04-30 20:16 53.37551 -3.56050 31130 ft 413 kts 102°
2026-04-30 20:17 53.36222 -3.46690 31168 ft 413 kts 105°
2026-04-30 20:17 53.35049 -3.37348 31163 ft 414 kts 99°
2026-04-30 20:18 53.34327 -3.27832 31062 ft 412 kts 101°
2026-04-30 20:18 53.33887 -3.23074 31190 ft 415 kts 98°
2026-04-30 20:18 53.33576 -3.18266 31183 ft 416 kts 95°
2026-04-30 20:19 53.33308 -3.08572 31037 ft 416 kts 99°
2026-04-30 20:19 53.32934 -3.05467 30898 ft 408 kts 105°
2026-04-30 20:19 53.31971 -2.99346 31215 ft 408 kts 105°
2026-04-30 20:19 53.31307 -2.94720 31111 ft 407 kts 108°
2026-04-30 20:20 53.30242 -2.90431 31056 ft 397 kts 121°
2026-04-30 20:20 53.27348 -2.82547 30943 ft 399 kts 127°
2026-04-30 20:20 53.25677 -2.78822 30026 ft 404 kts 128°
2026-04-30 20:21 53.23999 -2.75194 30353 ft 384 kts 127°